sat.trackr.live / text

‹ back to catalog

KUIPER-00107

NORAD 65145 · 2025-171P

PAYLOAD ACTIVE UNKNOWN

§ Identity

Operator
Country
US
Launch date
2025-08-11
Launch site
AFETR
Launch vehicle
Mass (kg)
RCS (m²)

External: N2YO · Heavens-Above · Gunter

§ Orbital elements

Epoch: 2026-05-25T01:32:49.287840Z

Period
97.30 min
Inclination
51.8990°
Eccentricity
0.0000386
Mean motion
14.79928316 rev/d
Perigee alt
629.3 km
Apogee alt
629.8 km
Semi-major
7,007.7 km
B*
3.0416e-4
RAAN
170.3659°
Arg perigee
79.8418°
Mean anomaly
280.2588°
Rev number
4,434

§ Raw data

KUIPER-001071 65145U 25171P   26145.06445935  .00002098  00000+0  30416-3 0  99962 65145  51.8990 170.3659 0000386  79.8418 280.2588 14.79928316 44348

JSON: /api/v1/satellites/65145 · /tle

For live sub-satellite position, see the globe view (requires WebGL).

§ Visibility from observer

Set your observer location to see the next 7 days of passes ≥ 10°. The values pass through the URL so the page stays shareable.

No JS? Fill the form by hand. The geolocation button needs JavaScript.